| time (UTC) | temp F | wind direction | speed knots | gust knots | rain 1hr in | rain 24hr in | rain mn in | humidity % | barometer mb |
| 20260506112721 | 46 | 241 | 17.4 | 20.9 | 0.00 | 0.00 | 0.00 | 72 | 1014.4 |
| 20260506110721 | 45 | 243 | 17.4 | 20.0 | 0.00 | 0.00 | 0.00 | 87 | 1014.5 |
| 20260506104722 | 46 | 245 | 18.2 | 20.9 | 0.00 | 0.00 | 0.00 | 81 | 1014.4 |
| 20260506102722 | 46 | 243 | 17.4 | 20.9 | 0.00 | 0.00 | 0.00 | 80 | 1014.3 |
| 20260506100722 | 46 | 243 | 16.5 | 20.0 | 0.00 | 0.00 | 0.00 | 81 | 1014.1 |
| 20260506094722 | 46 | 243 | 14.8 | 17.4 | 0.00 | 0.00 | 0.00 | 85 | 1014.1 |
| 20260506092722 | 47 | 244 | 14.8 | 17.4 | 0.00 | 0.00 | 0.00 | 76 | 1013.7 |
| 20260506090722 | 47 | 245 | 13.0 | 15.6 | 0.00 | 0.00 | 0.00 | 69 | 1013.6 |
| 20260506084722 | 49 | 257 | 13.0 | 16.5 | 0.00 | 0.00 | 0.00 | 70 | 1013.6 |
| 20260506082722 | 49 | 252 | 13.0 | 15.6 | 0.00 | 0.00 | 0.00 | 76 | 1013.5 |
| 20260506080722 | 47 | 244 | 14.8 | 16.5 | 0.00 | 0.00 | 0.00 | 81 | 1013.4 |
| 20260506072722 | 44 | 237 | 13.0 | 14.8 | 0.00 | 0.00 | 0.00 | 86 | 1013.2 |
| 20260506070722 | 46 | 248 | 9.6 | 11.3 | 0.00 | 0.00 | 0.00 | 65 | 1013.1 |
| 20260506060721 | 44 | 296 | 7.0 | 11.3 | 0.00 | 0.00 | 0.00 | 69 | 1012.8 |
| 20260506050721 | 42 | 304 | 7.0 | 10.4 | 0.00 | 0.00 | 0.00 | 78 | 1012.2 |
| 20260506044721 | 41 | 299 | 7.0 | 11.3 | 0.00 | 0.00 | 0.00 | 82 | 1011.9 |
| 20260506042721 | 40 | 286 | 7.0 | 10.4 | 0.00 | 0.00 | 0.00 | 87 | 1011.8 |
| 20260506040721 | 40 | 283 | 7.0 | 10.4 | 0.00 | 0.00 | 0.00 | 90 | 1011.6 |
| 20260506034721 | 39 | 279 | 8.7 | 12.2 | 0.00 | 0.00 | 0.00 | 93 | 1011.5 |
| 20260506032721 | 39 | 274 | 8.7 | 9.6 | 0.00 | 0.00 | 0.00 | 95 | 1011.3 |
| 20260506030721 | 38 | 274 | 7.8 | 9.6 | 0.00 | 0.00 | 0.00 | 95 | 1011.0 |
| 20260506024721 | 37 | 268 | 8.7 | 10.4 | 0.00 | 0.00 | 0.00 | 100 | 1010.8 |
| 20260506022721 | 37 | 272 | 7.8 | 10.4 | 0.00 | 0.00 | 0.00 | 100 | 1010.7 |
| 20260506020721 | 38 | 293 | 7.8 | 10.4 | 0.00 | 0.00 | 0.00 | 93 | 1010.5 |
| 20260506014721 | 38 | 293 | 7.8 | 10.4 | 0.00 | 0.00 | 0.00 | 94 | 1010.3 |
| 20260506012720 | 38 | 292 | 7.8 | 11.3 | 0.00 | 0.00 | 0.00 | 92 | 1010.2 |
| 20260506010721 | 38 | 294 | 7.8 | 9.6 | 0.00 | 0.00 | 0.00 | 92 | 1010.0 |
| 20260506004720 | 38 | 290 | 7.0 | 9.6 | 0.00 | 0.00 | 0.00 | 95 | 1009.9 |
| 20260506002720 | 38 | 292 | 7.8 | 10.4 | 0.00 | 0.00 | 0.00 | 91 | 1009.8 |
| 20260506000720 | 38 | 299 | 7.8 | 11.3 | 0.00 | 0.00 | 0.00 | 90 | 1009.7 |
| 20260505234720 | 38 | 296 | 8.7 | 13.0 | 0.00 | 0.00 | 0.00 | 87 | 1009.6 |
| 20260505232721 | 38 | 300 | 7.8 | 11.3 | 0.00 | 0.00 | 0.00 | 86 | 1009.5 |
| 20260505230720 | 39 | 300 | 7.8 | 12.2 | 0.00 | 0.00 | 0.00 | 86 | 1009.4 |
| 20260505224720 | 39 | 293 | 10.4 | 13.9 | 0.00 | 0.00 | 0.00 | 83 | 1009.2 |
| 20260505222720 | 39 | 296 | 11.3 | 15.6 | 0.00 | 0.00 | 0.00 | 82 | 1009.2 |
| 20260505220720 | 39 | 299 | 10.4 | 14.8 | 0.00 | 0.00 | 0.00 | 79 | 1009.1 |
| 20260505214720 | 40 | 300 | 10.4 | 17.4 | 0.00 | 0.00 | 0.00 | 78 | 1009.0 |
| 20260505212720 | 40 | 289 | 10.4 | 16.5 | 0.00 | 0.00 | 0.00 | 79 | 1008.9 |
| 20260505210720 | 40 | 288 | 9.6 | 14.8 | 0.00 | 0.00 | 0.00 | 75 | 1008.8 |
| 20260505204720 | 41 | 292 | 9.6 | 15.6 | 0.00 | 0.00 | 0.00 | 71 | 1008.6 |
| 20260505202720 | 41 | 292 | 11.3 | 16.5 | 0.00 | 0.00 | 0.00 | 67 | 1008.4 |
| 20260505200719 | 41 | 289 | 10.4 | 14.8 | 0.00 | 0.00 | 0.00 | 67 | 1008.2 |
| 20260505194719 | 42 | 285 | 8.7 | 14.8 | 0.00 | 0.00 | 0.00 | 68 | 1008.1 |
| 20260505192720 | 42 | 293 | 9.6 | 13.9 | 0.00 | 0.00 | 0.00 | 65 | 1008.1 |
| 20260505190719 | 42 | 296 | 11.3 | 16.5 | 0.00 | 0.00 | 0.00 | 63 | 1007.8 |
| 20260505184719 | 43 | 285 | 11.3 | 14.8 | 0.00 | 0.00 | 0.00 | 73 | 1007.7 |
| 20260505182719 | 42 | 269 | 14.8 | 18.2 | 0.00 | 0.00 | 0.00 | 98 | 1007.4 |
| 20260505180719 | 42 | 262 | 16.5 | 20.9 | 0.00 | 0.00 | 0.00 | 100 | 1007.1 |
| 20260505174719 | 42 | 260 | 16.5 | 20.9 | 0.00 | 0.00 | 0.00 | 100 | 1007.0 |
| 20260505172718 | 43 | 261 | 19.1 | 23.5 | 0.00 | 0.00 | 0.00 | 98 | 1006.9 |
| 20260505170718 | 43 | 261 | 18.2 | 22.6 | 0.00 | 0.00 | 0.00 | 96 | 1006.8 |
| 20260505164718 | 44 | 261 | 18.2 | 20.9 | 0.00 | 0.00 | 0.00 | 96 | 1006.8 |
| 20260505162719 | 44 | 266 | 15.6 | 19.1 | 0.00 | 0.00 | 0.00 | 94 | 1006.8 |
| 20260505160719 | 46 | 258 | 18.2 | 20.9 | 0.00 | 0.00 | 0.00 | 89 | 1006.7 |
| 20260505152718 | 47 | 259 | 18.2 | 22.6 | 0.00 | 0.00 | 0.00 | 70 | 1006.5 |
| 20260505150718 | 48 | 267 | 15.6 | 21.7 | 0.00 | 0.00 | 0.00 | 49 | 1006.3 |
| 20260505124718 | 49 | 253 | 20.9 | 24.3 | 0.00 | 0.00 | 0.00 | 78 | 1005.4 |
| 20260505122717 | 49 | 251 | 19.1 | 23.5 | 0.00 | 0.00 | 0.00 | 78 | 1005.2 |
| 20260505120717 | 50 | 252 | 20.9 | 26.1 | 0.00 | 0.00 | 0.00 | 71 | 1005.0 |
| 20260505114718 | 49 | 253 | 20.9 | 25.2 | 0.00 | 0.00 | 0.00 | 81 | 1004.9 |